K1QL Weather Reports


time (UTC)temp
F
wind
direction
speed
knots
gust
knots
rain 1hr
in
rain 24hr
in
rain mn
in
humidity
%
barometer
mb
20260507103019 49 103 1.7 2.6 0.05 0.20 0.20 95 1007.3
20260507102516 49 151 1.7 1.7 0.09 0.20 0.20 95 1007.5
20260507102012 49 58 1.7 3.5 0.07 0.20 0.20 95 1007.4
20260507101507 49 69 0.0 1.7 0.02 0.19 0.19 95 1007.8
20260507101004 49 6 0.0 1.7 0.05 0.18 0.18 95 1007.9
20260507100501 49 113 0.0 0.0 0.07 0.18 0.18 95 1007.9
20260507095959 49 76 0.0 0.9 0.07 0.18 0.18 95 1008.0
20260507095457 49 125 0.0 0.9 0.07 0.17 0.17 95 1007.7
20260507094954 49 128 0.0 0.0 0.07 0.17 0.17 95 1007.5
20260507094450 49 212 0.0 0.9 0.02 0.16 0.16 94 1008.0
20260507093947 49 279 0.0 0.9 0.02 0.15 0.15 95 1007.7
20260507093445 49 191 0.9 1.7 0.05 0.15 0.15 94 1007.5
20260507092943 49 335 0.9 4.3 0.05 0.15 0.15 94 1007.0
20260507092438 49 0 0.9 3.5 0.07 0.15 0.15 94 1007.0
20260507091936 49 314 0.0 1.7 0.05 0.14 0.14 94 1007.4
20260507091432 49 336 0.0 1.7 0.00 0.13 0.13 94 1007.4
20260507090928 49 46 0.0 1.7 0.00 0.13 0.13 94 1007.3
20260507090424 49 113 0.0 3.5 0.00 0.13 0.13 94 1007.2
20260507085921 49 36 1.7 3.5 0.02 0.13 0.13 94 1007.1
20260507085418 49 151 0.0 0.9 0.05 0.13 0.13 94 1007.0
20260507084915 49 44 0.0 3.5 0.09 0.13 0.13 93 1006.9
20260507084412 49 10 1.7 3.5 0.09 0.13 0.13 93 1006.8
20260507083909 49 38 1.7 2.6 0.05 0.11 0.11 93 1007.1
20260507083405 49 41 0.0 1.7 0.09 0.11 0.11 93 1007.7
20260507082902 50 217 0.0 0.9 0.05 0.10 0.10 93 1007.3
20260507082357 50 306 0.0 3.5 0.05 0.09 0.09 92 1007.1
20260507081855 50 252 1.7 1.7 0.05 0.09 0.09 92 1007.2
20260507081351 50 267 0.9 0.9 0.09 0.09 0.09 92 1007.3
20260507080848 50 2 1.7 1.7 0.07 0.08 0.08 91 1007.2
20260507080344 50 308 1.7 2.6 0.07 0.07 0.07 91 1007.2
20260507075839 51 79 2.6 2.6 0.07 0.06 0.06 91 1007.1
20260507075335 51 13 1.7 1.7 0.07 0.06 0.06 91 1007.4
20260507074832 51 304 0.0 0.0 0.05 0.05 0.05 91 1007.5
20260507074330 51 269 1.7 1.7 0.07 0.05 0.05 90 1007.7
20260507073827 51 294 0.0 1.7 0.14 0.04 0.04 89 1007.4
20260507073323 51 302 0.0 0.0 0.12 0.04 0.04 87 1006.9
20260507072821 52 269 0.0 3.5 0.07 0.02 0.02 85 1007.5
20260507072318 53 268 1.7 4.3 0.09 0.02 0.02 82 1007.4
20260507071815 53 344 1.7 3.5 0.02 0.00 0.00 80 1006.5
20260507071312 54 271 0.0 2.6 0.00 0.00 0.00 81 1006.5
20260507070808 54 296 0.0 1.7 0.00 0.00 0.00 80 1006.1
20260507070306 54 259 0.9 2.6 0.00 0.00 0.00 80 1006.2
20260507065802 54 322 0.0 1.7 0.00 0.00 0.00 79 1006.0
20260507065259 54 330 1.7 3.5 0.00 0.00 0.00 78 1006.2
20260507064756 55 321 0.0 2.6 0.00 0.00 0.00 78 1006.2
20260507064255 55 355 3.5 4.3 0.00 0.00 0.00 78 1006.2
20260507063752 55 330 3.5 3.5 0.00 0.00 0.00 81 1006.4
20260507063249 55 253 0.9 5.2 0.00 0.00 0.00 83 1006.5
20260507062746 56 41 1.7 2.6 0.00 0.00 0.00 88 1006.2
20260507062243 56 291 1.7 2.6 0.00 0.00 0.00 89 1006.3
20260507061741 56 34 0.0 1.7 0.00 0.00 0.00 88 1006.4
20260507061239 56 27 0.0 1.7 0.00 0.00 0.00 88 1006.3
20260507060737 56 265 0.9 0.9 0.00 0.00 0.00 88 1006.3
20260507060233 57 16 1.7 1.7 0.00 0.00 0.00 88 1006.3
20260507055729 57 45 0.0 0.9 0.00 0.00 0.00 88 1006.4
20260507055225 57 18 0.0 1.7 0.00 0.00 0.00 88 1006.5
20260507054721 57 16 0.0 3.5 0.00 0.00 0.00 88 1006.5
20260507054218 57 319 0.0 2.6 0.00 0.00 0.00 89 1006.7
20260507053716 57 319 0.0 2.6 0.00 0.00 0.00 90 1006.5
20260507053213 57 298 0.0 0.9 0.00 0.00 0.00 91 1006.7
20260507052712 58 350 0.9 0.9 0.00 0.00 0.00 91 1006.5
20260507052208 58 317 0.0 0.9 0.00 0.00 0.00 91 1006.9
20260507051706 58 343 0.9 1.7 0.00 0.00 0.00 90 1006.9
20260507051202 58 308 0.9 1.7 0.00 0.00 0.00 90 1006.9
20260507050659 58 310 0.0 0.9 0.00 0.00 0.00 90 1006.8
20260507050156 58 245 1.7 1.7 0.00 0.00 0.00 90 1006.5
20260507045652 58 235 0.0 2.6 0.00 0.00 0.00 90 1006.7
20260507045149 58 254 1.7 2.6 0.00 0.00 0.00 90 1006.5
20260507044646 58 278 1.7 1.7 0.00 0.00 0.00 90 1006.8
20260507044143 58 273 1.7 2.6 0.00 0.00 0.00 90 1006.6
20260507043639 59 251 1.7 2.6 0.00 0.00 0.00 90 1006.5
20260507043136 59 252 3.5 3.5 0.00 0.00 0.00 91 1006.6
20260507042632 59 296 1.7 1.7 0.00 0.00 0.00 91 1006.4
20260507042127 59 276 1.7 2.6 0.00 0.00 0.00 92 1006.5
20260507041625 59 267 2.6 3.5 0.00 0.00 0.00 92 1006.6
20260507041121 59 269 0.9 2.6 0.00 0.00 0.00 93 1006.6
20260507040618 59 221 0.0 1.7 0.00 0.00 0.00 93 1006.5
20260507040115 59 249 0.0 0.0 0.00 0.00 0.00 93 1006.6
20260507035611 59 309 0.0 0.9 0.00 0.06 0.06 92 1006.6
20260507035107 59 344 1.7 2.6 0.00 0.06 0.06 92 1006.7
20260507034604 59 269 0.9 2.6 0.00 0.06 0.06 92 1006.7
20260507034102 60 233 1.7 2.6 0.00 0.06 0.06 91 1006.5
20260507033600 60 252 0.0 1.7 0.00 0.06 0.06 91 1006.4
20260507033056 60 306 0.9 1.7 0.00 0.06 0.06 91 1006.7
20260507032554 60 22 0.0 2.6 0.00 0.06 0.06 91 1006.7
20260507032050 60 258 0.9 3.5 0.00 0.06 0.06 91 1006.6
20260507031546 60 229 0.9 2.6 0.00 0.06 0.06 91 1006.4
20260507031043 60 234 0.0 2.6 0.00 0.06 0.06 91 1006.6
20260507030540 60 199 0.0 1.7 0.00 0.06 0.06 91 1006.4
20260507030038 60 209 1.7 1.7 0.00 0.06 0.06 91 1006.5
20260507025535 60 216 1.7 7.0 0.00 0.06 0.06 91 1006.4
20260507025032 60 274 1.7 1.7 0.00 0.06 0.06 91 1006.3
20260507024530 59 232 1.7 3.5 0.00 0.06 0.06 91 1006.4
20260507024026 59 231 3.5 3.5 0.00 0.06 0.06 91 1006.3
20260507023522 59 269 0.0 1.7 0.00 0.06 0.06 91 1006.5
20260507023020 59 192 1.7 3.5 0.00 0.06 0.06 91 1006.3
20260507022516 59 190 1.7 2.6 0.00 0.06 0.06 91 1006.4
20260507022012 59 196 2.6 3.5 0.00 0.06 0.06 91 1006.4
20260507021508 59 261 0.9 2.6 0.00 0.06 0.06 92 1006.3
20260507021005 59 269 2.6 3.5 0.00 0.06 0.06 92 1006.5
20260507020502 59 272 1.7 2.6 0.00 0.06 0.06 92 1006.4
20260507015959 59 99 0.0 1.7 0.00 0.06 0.06 92 1006.3
20260507015458 59 162 0.9 3.5 0.00 0.06 0.06 92 1006.4
20260507014954 59 201 2.6 3.5 0.00 0.06 0.06 92 1006.3
20260507014451 59 136 1.7 1.7 0.00 0.06 0.06 93 1006.3
20260507013946 59 252 1.7 1.7 0.00 0.06 0.06 93 1006.4
20260507013443 59 271 1.7 1.7 0.00 0.06 0.06 93 1006.5
20260507012941 59 191 0.9 2.6 0.00 0.06 0.06 93 1006.1
20260507012438 59 239 1.7 2.6 0.00 0.06 0.06 93 1006.5
20260507011934 59 223 1.7 1.7 0.00 0.06 0.06 93 1006.6
20260507011432 58 247 0.0 1.7 0.00 0.06 0.06 93 1006.6
20260507010932 58 274 2.6 3.5 0.00 0.06 0.06 93 1006.6
20260507010427 58 219 0.0 2.6 0.00 0.06 0.06 93 1006.8
20260507005924 58 83 0.9 2.6 0.00 0.06 0.06 93 1006.6
20260507005421 58 144 0.0 2.6 0.00 0.06 0.06 93 1006.7
20260507004917 58 221 3.5 4.3 0.00 0.06 0.06 93 1006.6
20260507004414 58 223 1.7 5.2 0.00 0.06 0.06 93 1006.7
20260507003912 58 130 0.9 3.5 0.00 0.06 0.06 93 1006.9
20260507003407 58 204 2.6 3.5 0.00 0.06 0.06 93 1006.8
20260507002902 58 274 3.5 4.3 0.00 0.06 0.06 93 1006.8
20260507002358 58 196 3.5 3.5 0.00 0.06 0.06 93 1006.7
20260507001856 58 226 2.6 5.2 0.00 0.06 0.06 93 1006.8
20260507001353 58 266 1.7 5.2 0.00 0.06 0.06 93 1006.4
20260507000849 58 232 2.6 3.5 0.00 0.06 0.06 93 1006.6
20260507000345 58 227 0.9 2.6 0.00 0.06 0.06 93 1006.5
20260506235841 58 127 1.7 3.5 0.00 0.06 0.06 93 1006.5
20260506235339 58 169 1.7 2.6 0.02 0.06 0.06 93 1006.6
20260506234834 58 182 1.7 3.5 0.02 0.06 0.06 93 1006.6
20260506234332 58 182 1.7 4.3 0.00 0.05 0.05 93 1006.6
20260506233830 58 200 1.7 2.6 0.00 0.05 0.05 93 1006.5
20260506233325 58 166 1.7 2.6 0.00 0.05 0.05 93 1006.5
20260506232823 58 166 1.7 2.6 0.00 0.05 0.05 93 1006.4
20260506232318 58 182 1.7 3.5 0.00 0.05 0.05 93 1006.4
20260506231815 58 183 0.9 2.6 0.00 0.05 0.05 92 1006.4
20260506231313 58 240 0.0 4.3 0.00 0.05 0.05 92 1006.3
20260506230810 58 126 0.9 3.5 0.00 0.05 0.05 92 1006.4
20260506230307 58 225 2.6 4.3 0.00 0.05 0.05 92 1006.5
20260506225803 58 249 0.9 4.3 0.00 0.05 0.05 92 1006.4
20260506225300 59 156 0.0 5.2 0.00 0.05 0.05 92 1006.5
20260506224756 59 216 0.0 2.6 0.00 0.05 0.05 92 1006.6
20260506224254 59 119 0.0 2.6 0.00 0.05 0.05 92 1006.5
20260506223750 59 190 1.7 3.5 0.00 0.05 0.05 92 1006.6
20260506223246 59 173 2.6 3.5 0.00 0.05 0.05 92 1006.2
20260506222743 59 239 1.7 3.5 0.00 0.05 0.05 92 1006.3
20260506222239 59 133 1.7 3.5 0.00 0.05 0.05 92 1006.5
20260506221737 59 116 1.7 3.5 0.00 0.05 0.05 92 1006.3
20260506221234 59 138 2.6 3.5 0.00 0.05 0.05 92 1006.5
20260506220731 59 151 4.3 4.3 0.02 0.05 0.05 92 1006.5
20260506220226 59 164 0.0 3.5 0.02 0.05 0.05 92 1006.8
20260506215723 59 140 2.6 3.5 0.00 0.05 0.05 92 1006.8
20260506215218 59 175 2.6 4.3 0.00 0.05 0.05 92 1006.7
20260506214715 59 135 1.7 1.7 0.02 0.05 0.05 92 1006.8
20260506214213 59 151 1.7 3.5 0.00 0.04 0.04 91 1006.8
20260506213711 59 233 1.7 2.6 0.00 0.04 0.04 91 1006.7
20260506213208 60 177 0.9 2.6 0.02 0.04 0.04 91 1006.8
20260506212705 60 283 0.0 1.7 0.02 0.04 0.04 90 1006.8
20260506212200 60 203 1.7 2.6 0.00 0.04 0.04 90 1006.8
20260506211656 60 177 0.0 1.7 0.00 0.04 0.04 89 1007.1
20260506211152 60 233 2.6 4.3 0.00 0.04 0.04 89 1007.1
20260506210649 60 190 1.7 4.3 0.00 0.04 0.04 89 1007.2
20260506210146 60 224 0.0 6.1 0.00 0.04 0.04 89 1007.2
20260506205644 60 193 2.6 3.5 0.00 0.04 0.04 90 1007.1
20260506205138 60 103 0.0 3.5 0.02 0.04 0.04 90 1007.1
20260506204636 60 186 0.9 7.0 0.02 0.04 0.04 89 1007.0
20260506204133 60 109 1.7 5.2 0.02 0.04 0.04 89 1007.2
20260506203631 60 169 0.0 2.6 0.00 0.03 0.03 89 1007.4
20260506203127 60 188 1.7 2.6 0.00 0.03 0.03 88 1007.4
20260506202626 60 200 1.7 4.3 0.00 0.03 0.03 88 1007.3
20260506202121 60 148 1.7 1.7 0.02 0.03 0.03 88 1007.3
20260506201619 60 186 1.7 2.6 0.02 0.03 0.03 88 1007.5
20260506201115 60 267 0.9 1.7 0.00 0.03 0.03 88 1007.7
20260506200612 60 22 1.7 4.3 0.00 0.03 0.03 88 1007.4
20260506200109 60 261 3.5 5.2 0.00 0.03 0.03 88 1007.5
20260506195605 60 230 5.2 5.2 0.00 0.03 0.03 87 1007.7
20260506195102 61 208 3.5 4.3 0.00 0.03 0.03 87 1007.5
20260506194559 61 211 0.0 3.5 0.02 0.03 0.03 86 1007.4
20260506194055 61 208 4.3 7.0 0.07 0.03 0.03 85 1007.5
20260506193553 61 241 3.5 5.2 0.05 0.02 0.02 83 1007.4
20260506193050 62 154 1.7 7.8 0.05 0.02 0.02 81 1007.4
20260506192547 62 227 3.5 3.5 0.02 0.01 0.01 80 1007.7
20260506192043 62 224 3.5 3.5 0.02 0.01 0.01 79 1007.9
20260506191540 63 187 0.9 3.5 0.02 0.01 0.01 78 1007.7
20260506191035 63 212 1.7 6.1 0.02 0.00 0.00 77 1007.5
20260506190533 63 217 5.2 7.8 0.02 0.00 0.00 76 1007.8
20260506190030 64 274 1.7 6.1 0.00 0.00 0.00 74 1007.5
20260506185527 64 227 6.1 7.0 0.00 0.00 0.00 73 1008.0
20260506185024 65 199 4.3 7.0 0.00 0.00 0.00 71 1007.9
20260506184521 65 290 2.6 5.2 0.00 0.00 0.00 69 1007.9
20260506184018 66 225 2.6 7.0 0.00 0.00 0.00 67 1008.0
20260506183514 66 204 3.5 7.8 0.00 0.00 0.00 66 1007.9
20260506183011 67 184 1.7 3.5 0.00 0.00 0.00 65 1007.8
20260506182508 67 267 1.7 7.0 0.00 0.00 0.00 64 1008.0
20260506182005 68 138 0.9 6.1 0.00 0.00 0.00 63 1008.0
20260506181503 68 191 4.3 9.6 0.00 0.00 0.00 61 1008.2
20260506181000 69 200 3.5 5.2 0.00 0.00 0.00 60 1007.8
20260506180456 69 284 1.7 4.3 0.00 0.00 0.00 59 1008.0
20260506175953 69 203 7.8 8.7 0.00 0.00 0.00 58 1008.2
20260506175450 70 224 3.5 6.1 0.00 0.00 0.00 58 1008.1
20260506174946 70 189 2.6 10.4 0.00 0.00 0.00 57 1008.2
20260506174444 71 274 2.6 2.6 0.00 0.00 0.00 57 1008.2
20260506173940 71 180 4.3 5.2 0.00 0.00 0.00 56 1008.1
20260506173438 71 295 1.7 6.1 0.00 0.00 0.00 55 1008.1
20260506172935 71 237 3.5 5.2 0.00 0.00 0.00 55 1008.5
20260506172432 71 291 2.6 5.2 0.00 0.00 0.00 55 1008.2
20260506171928 71 240 4.3 9.6 0.00 0.00 0.00 55 1008.4
20260506171426 71 254 2.6 9.6 0.00 0.00 0.00 55 1008.5
20260506170924 71 194 4.3 9.6 0.00 0.00 0.00 55 1008.2
20260506170420 72 163 2.6 13.0 0.00 0.00 0.00 53 1008.6
20260506165919 73 301 3.5 8.7 0.00 0.00 0.00 54 1008.4
20260506165417 72 223 7.0 9.6 0.00 0.00 0.00 53 1008.2
20260506164913 72 243 8.7 9.6 0.00 0.00 0.00 53 1008.5
20260506164409 72 233 6.1 9.6 0.00 0.00 0.00 54 1008.4
20260506163908 72 78 2.6 5.2 0.00 0.00 0.00 55 1008.6
20260506163401 72 201 3.5 7.8 0.00 0.00 0.00 55 1009.0
20260506162856 72 227 8.7 11.3 0.00 0.00 0.00 53 1008.9
20260506162355 72 297 1.7 5.2 0.00 0.00 0.00 54 1008.8
20260506161852 71 245 1.7 8.7 0.00 0.00 0.00 55 1008.8
20260506161349 71 218 3.5 11.3 0.00 0.00 0.00 55 1008.9
20260506160847 72 224 3.5 6.1 0.00 0.00 0.00 54 1009.1
20260506160344 72 227 5.2 8.7 0.00 0.00 0.00 54 1009.3
20260506155842 71 262 0.9 3.5 0.00 0.00 0.00 55 1009.1
20260506155338 71 238 7.0 9.6 0.00 0.00 0.00 54 1009.3
20260506153450 72 170 5.2 9.6 0.00 0.00 0.00 54 1009.4
20260506152948 72 267 4.3 7.0 0.00 0.00 0.00 54 1009.5
20260506152444 72 211 3.5 11.3 0.00 0.00 0.00 54 1009.4
20260506151943 72 227 5.2 8.7 0.00 0.00 0.00 56 1009.7
20260506151440 71 205 3.5 7.8 0.00 0.00 0.00 56 1009.5
20260506150937 71 220 5.2 7.0 0.00 0.00 0.00 57 1009.7
20260506150433 71 266 4.3 11.3 0.00 0.00 0.00 58 1009.8
20260506145931 71 260 5.2 8.7 0.00 0.00 0.00 57 1009.6
20260506145427 71 232 6.1 6.1 0.00 0.00 0.00 57 1009.7
20260506144924 70 237 1.7 7.0 0.00 0.00 0.00 57 1009.6
20260506144421 70 197 2.6 9.6 0.00 0.00 0.00 57 1009.7
20260506143919 70 206 4.3 8.7 0.00 0.00 0.00 57 1009.7
20260506143416 71 294 2.6 8.7 0.00 0.00 0.00 56 1009.8
20260506142914 70 250 1.7 5.2 0.00 0.00 0.00 57 1009.7
20260506142412 70 226 3.5 7.0 0.00 0.00 0.00 58 1009.6
20260506141910 70 168 0.0 5.2 0.00 0.00 0.00 58 1009.5
20260506141407 70 230 2.6 8.7 0.00 0.00 0.00 58 1009.7
20260506140906 70 244 3.5 9.6 0.00 0.00 0.00 57 1009.6
20260506140402 70 141 9.6 10.4 0.00 0.00 0.00 59 1009.6
20260506135859 70 241 4.3 6.1 0.00 0.00 0.00 59 1009.7
20260506135356 69 201 4.3 9.6 0.00 0.00 0.00 61 1009.6
20260506134852 69 252 3.5 13.0 0.00 0.00 0.00 61 1009.6
20260506134348 69 194 4.3 8.7 0.00 0.00 0.00 61 1009.8
20260506133846 69 214 2.6 8.7 0.00 0.00 0.00 60 1009.5
20260506133342 70 213 3.5 7.0 0.00 0.00 0.00 61 1009.7
20260506132839 69 215 4.3 4.3 0.00 0.00 0.00 61 1010.0
20260506132336 69 52 1.7 5.2 0.00 0.00 0.00 62 1010.1
20260506131834 69 276 3.5 3.5 0.00 0.00 0.00 62 1010.1
20260506131330 68 258 2.6 7.8 0.00 0.00 0.00 63 1010.0
20260506130828 69 261 2.6 4.3 0.00 0.00 0.00 63 1010.3
20260506130324 68 336 1.7 5.2 0.00 0.00 0.00 64 1010.1
20260506125822 68 217 1.7 5.2 0.00 0.00 0.00 65 1010.2
20260506125320 68 186 2.6 3.5 0.00 0.00 0.00 66 1010.1
20260506124818 67 254 3.5 3.5 0.00 0.00 0.00 67 1010.2
20260506124315 66 239 2.6 5.2 0.00 0.00 0.00 67 1010.2
20260506123812 66 23 0.9 5.2 0.00 0.00 0.00 68 1010.3
20260506123311 65 266 1.7 3.5 0.00 0.00 0.00 69 1010.2
20260506122807 65 232 3.5 4.3 0.00 0.00 0.00 69 1010.2
20260506122306 65 209 0.9 2.6 0.00 0.00 0.00 70 1010.4
20260506121803 65 202 2.6 4.3 0.00 0.00 0.00 70 1010.3
20260506121259 65 215 1.7 3.5 0.00 0.00 0.00 70 1010.1
20260506120757 65 182 2.6 5.2 0.00 0.00 0.00 71 1010.1
20260506120254 65 256 2.6 7.0 0.00 0.00 0.00 71 1010.1
20260506115752 64 188 1.7 5.2 0.00 0.00 0.00 73 1010.3
20260506115249 64 125 5.2 5.2 0.00 0.00 0.00 73 1010.5
20260506114747 62 182 1.7 4.3 0.00 0.00 0.00 77 1010.6
20260506114245 62 191 0.9 3.5 0.00 0.00 0.00 78 1010.5
20260506113743 62 158 1.7 5.2 0.00 0.00 0.00 77 1010.9
20260506113240 62 200 1.7 3.5 0.00 0.00 0.00 77 1010.8
20260506112736 62 191 2.6 3.5 0.00 0.00 0.00 77 1010.8
20260506112234 62 254 2.6 3.5 0.00 0.00 0.00 77 1010.9
20260506111731 62 218 2.6 2.6 0.00 0.00 0.00 77 1010.8
20260506111230 62 224 3.5 3.5 0.00 0.00 0.00 78 1010.7
20260506110726 62 222 2.6 4.3 0.00 0.00 0.00 76 1010.6
20260506110224 62 170 1.7 1.7 0.00 0.00 0.00 77 1010.6
20260506105720 61 169 1.7 2.6 0.00 0.00 0.00 79 1010.5
20260506105217 60 182 1.7 3.5 0.00 0.00 0.00 80 1010.7
20260506104715 60 160 1.7 2.6 0.00 0.00 0.00 80 1010.6
20260506104212 60 151 1.7 2.6 0.00 0.00 0.00 80 1010.7
20260506103709 60 105 0.9 1.7 0.00 0.00 0.00 80 1010.6